This demonstration page uses our WeatherBlox Daily Observations layout. Learn more.

40.92945, -100.16068

Hourly Observations for August 5, 2017

Temp ( °F °C ) Dew Point ( °F °C ) Humidity (%) Winds ( mph kmh ) Pressure ( in mb ) Visibility ( mi km ) Precip ( " mm )
12:15 am 00:15 Partly Cloudy 64 17.5 51 10.8 65 65 SE 9 15 29.94 1014 10 16.09344 0 0
12:35 am 00:35 Partly Cloudy 63 17.4 51 10.7 65 65 SE 13 20 29.91 1013 10 16.09344 0 0
12:55 am 00:55 Partly Cloudy 64 17.5 51 10.4 63 63 SE 12 19 29.91 1013 10 16.09344 0 0
1:15 am 01:15 Clear 64 17.7 50 10.1 61 61 SE 9 15 29.91 1013 10 16.09344 0 0
1:35 am 01:35 Clear 64 17.5 51 10.3 63 63 SE 9 15 29.91 1013 10 16.09344 0 0
1:55 am 01:55 Partly Cloudy 64 17.5 50 10.2 62 62 ESE 7 11 29.91 1013 10 16.09344 0 0
2:15 am 02:15 Mostly Cloudy 64 17.6 51 10.5 63 63 SE 8 13 29.91 1013 10 16.09344 0 0
2:35 am 02:35 Mostly Cloudy 64 17.5 51 10.6 64 64 ESE 8 13 29.91 1013 10 16.09344 0 0
2:55 am 02:55 Mostly Cloudy 64 17.5 51 10.5 64 64 ESE 7 11 29.91 1013 10 16.09344 0 0
3:15 am 03:15 Cloudy with Nearby Thunderstorms 64 17.5 51 10.7 65 65 SE 6 9 29.91 1013 10 16.09344 0 0
3:35 am 03:35 Cloudy 63 17.2 52 11 67 67 SSE 7 11 29.88 1012 10 16.09344 0 0
3:55 am 03:55 Partly Cloudy with Nearby Thunderstorms 62 16.7 52 11 69 69 SSE 8 13 29.85 1011 10 16.09344 0 0
4:15 am 04:15 Clear 62 16.7 52 11 69 69 ESE 6 9 29.85 1011 10 16.09344 0 0
4:35 am 04:35 Clear 63 17.3 51 10.8 66 66 SSE 8 13 29.85 1011 10 16.09344 0 0
4:55 am 04:55 Clear 62 16.7 52 11 69 69 SE 7 11 29.85 1011 10 16.09344 0 0
5:15 am 05:15 Clear 63 17 52 11.1 68 68 SE 10 17 29.85 1011 10 16.09344 0 0
5:35 am 05:35 Clear 62 16.7 52 11.3 71 71 SE 9 15 29.83 1010 10 16.09344 0 0
5:55 am 05:55 Clear 62 16.6 53 11.7 73 73 SE 12 19 29.83 1010 10 16.09344 0 0
6:15 am 06:15 Clear 62 16.4 54 12 75 75 ESE 8 13 29.83 1010 10 16.09344 0 0
6:35 am 06:35 Clear 61 16 54 12.3 79 79 ENE 9 15 29.83 1010 10 16.09344 0 0
6:55 am 06:55 Sunny 60 15.6 55 12.5 82 82 NE 6 9 29.85 1011 10 16.09344 0 0
7:15 am 07:15 Partly Cloudy 61 16 55 12.5 80 80 S 7 11 29.88 1012 10 16.09344 0 0
7:35 am 07:35 Mostly Cloudy 61 16 56 13.1 83 83 SW 7 11 29.88 1012 10 16.09344 0 0
7:55 am 07:55 Partly Cloudy 62 16.6 56 13.1 80 80 SE 8 13 29.88 1012 10 16.09344 0 0
8:15 am 08:15 Sunny 64 17.5 56 13.3 77 77 SE 7 11 29.85 1011 10 16.09344 0 0
8:35 am 08:35 Sunny 66 19 56 13.2 69 69 SSE 12 19 29.83 1010 10 16.09344 0 0
8:55 am 08:55 Sunny 68 19.8 56 13.1 65 65 SSE 13 20 29.83 1010 10 16.09344 0 0
9:15 am 09:15 Sunny with Nearby Thunderstorms 68 20 56 13.3 65 65 SSE 13 20 29.85 1011 10 16.09344 0 0
9:35 am 09:35 Partly Cloudy 68 19.9 56 13.4 66 66 SE 18 30 29.8 1009 10 16.09344 0 0
9:55 am 09:55 Partly Cloudy 67 19.7 56 13.5 68 68 SE 13 20 29.83 1010 10 16.09344 0 0
10:15 am 10:15 Sunny 70 20.9 57 13.8 64 64 SSE 17 28 29.83 1010 10 16.09344 0 0
10:35 am 10:35 Sunny 70 21.1 57 13.9 64 64 SSE 13 20 29.83 1010 10 16.09344 0 0
10:55 am 10:55 Sunny 71 21.5 57 14.1 63 63 SSE 18 30 29.83 1010 10 16.09344 0 0
11:15 am 11:15 Partly Cloudy 71 21.6 58 14.5 64 64 SSE 17 28 29.83 1010 10 16.09344 0 0
11:35 am 11:35 Partly Cloudy 71 21.8 58 14.6 64 64 SE 16 26 29.83 1010 10 16.09344 0 0
11:55 am 11:55 Sunny 72 22.3 58 14.5 61 61 SSE 9 15 29.83 1010 10 16.09344 0 0
12:15 pm 12:15 Sunny 72 22.2 58 14.5 62 62 SSE 9 15 29.83 1010 10 16.09344 0 0
12:35 pm 12:35 Sunny 73 22.5 59 14.8 62 62 SE 8 13 29.85 1011 10 16.09344 0 0
12:55 pm 12:55 Sunny 73 22.6 58 14.7 61 61 E 7 11 29.8 1009 10 16.09344 0 0
1:15 pm 13:15 Sunny 73 23 59 14.8 60 60 SE 8 13 29.8 1009 10 16.09344 0 0
1:35 pm 13:35 Sunny 75 23.9 60 15.3 59 59 ESE 8 13 29.8 1009 10 16.09344 0 0
1:55 pm 13:55 Sunny 75 24 60 15.5 59 59 E 10 17 29.8 1009 10 16.09344 0 0
2:15 pm 14:15 Sunny 76 24.4 61 16 60 60 SE 9 15 29.8 1009 10 16.09344 0 0
2:35 pm 14:35 Sunny 76 24.7 61 16.2 59 59 SE 10 17 29.8 1009 10 16.09344 0 0
2:55 pm 14:55 Sunny 76 24.7 62 16.4 60 60 ESE 10 17 29.8 1009 7 11.265408 0 0
3:15 pm 15:15 Sunny 77 25.2 62 16.7 59 59 SE 9 15 29.8 1009 10 16.09344 0 0
3:35 pm 15:35 Sunny 77 25.1 62 16.7 60 60 SSE 10 17 29.8 1009 10 16.09344 0 0
3:55 pm 15:55 Partly Cloudy 78 25.3 62 16.8 59 59 S 10 17 29.8 1009 10 16.09344 0 0
4:15 pm 16:15 Partly Cloudy 77 25 62 16.8 60 60 SSE 8 13 29.8 1009 10 16.09344 0 0
4:35 pm 16:35 Mostly Cloudy 76 24.7 62 16.5 60 60 SSE 7 11 29.8 1009 10 16.09344 0 0
4:55 pm 16:55 Partly Cloudy 77 25 62 16.6 60 60 ESE 6 9 29.8 1009 10 16.09344 0 0
5:15 pm 17:15 Sunny 77 25.1 62 16.6 59 59 ESE 7 11 29.8 1009 10 16.09344 0 0
5:35 pm 17:35 Sunny 78 25.5 62 16.7 58 58 ESE 7 11 29.8 1009 10 16.09344 0 0
5:55 pm 17:55 Sunny 77 25.1 62 16.9 60 60 ESE 9 15 29.8 1009 10 16.09344 0 0
6:15 pm 18:15 Sunny 78 25.4 63 17.1 60 60 SE 9 15 29.77 1008 10 16.09344 0 0
6:35 pm 18:35 Sunny 77 24.9 62 16.8 61 61 SE 6 9 29.77 1008 10 16.09344 0 0
6:55 pm 18:55 Sunny 77 25 63 17 61 61 SSE 6 9 29.77 1008 10 16.09344 0 0
7:15 pm 19:15 Sunny 76 24.7 63 17.2 63 63 E 6 9 29.77 1008 10 16.09344 0 0
7:35 pm 19:35 Sunny 76 24.2 63 17.1 65 65 E 7 11 29.77 1008 10 16.09344 0 0
7:55 pm 19:55 Sunny 75 23.9 63 17.3 67 67 E 7 11 29.8 1009 10 16.09344 0 0
8:15 pm 20:15 Sunny 74 23.3 63 17.1 68 68 ESE 3 6 29.8 1009 10 16.09344 0 0
8:35 pm 20:35 Sunny 72 22.4 63 17 72 72 SE 3 6 29.83 1010 10 16.09344 0 0
8:55 pm 20:55 Clear 71 21.5 62 16.6 74 74 Calm 29.83 1010 10 16.09344 0 0
9:15 pm 21:15 Clear 69 20.6 64 17.5 83 83 E 3 6 29.83 1010 10 16.09344 0 0
9:35 pm 21:35 Clear 68 19.8 63 17.1 85 85 E 3 6 29.83 1010 10 16.09344 0 0
9:55 pm 21:55 Clear 67 19.6 62 16.7 83 83 SE 5 7 29.83 1010 10 16.09344 0 0
10:15 pm 22:15 Clear 68 20.1 63 17 82 82 Calm 29.83 1010 10 16.09344 0 0
10:35 pm 22:35 Clear 67 19.3 62 16.7 85 85 SSE 6 9 29.85 1011 10 16.09344 0 0
10:55 pm 22:55 Clear 68 20 64 17.7 87 87 SE 9 15 29.85 1011 10 16.09344 0 0
11:15 pm 23:15 Mostly Cloudy 68 19.8 65 18.1 90 90 ESE 7 11 29.85 1011 10 16.09344 0 0
11:35 pm 23:35 Cloudy 68 19.8 65 18.1 90 90 E 6 9 29.88 1012 7 11.265408 0 0
11:55 pm 23:55 Cloudy 68 19.8 64 18 89 89 ESE 9 15 29.88 1012 10 16.09344 0 0

Powered by AerisWeather